"Pseudo-MPEC" for P11DxbX

Created 2023 Mar 22 15:22:12 UT using Find_Orb

Click here for an explanation of pseudo-MPECs

 
 Astrometry: 
     P11DxbX* C2023 03 174$hXAstrometry80(K+:9c:8?IMs0DVhk`ND5N#,qke/!m5-aNp!F51
     P11DxbX  C2023 03 17@6$mc5ksW\Y_TWu)XxiODT8Eredacted;!',=/WOGww0fB)C%\3sF51
     P11DxbX  C2023 03 171p+d`4.:'-pb:3rK+!r\x(HAclickeE[(g.m^nhereWD(e8cM.LAF51
     P11DxbX  C2023 03 17ADl'ydcxFfse1MFmfor:.axrB+^[HeCt,explanation?rxFrcJbF51

Station data:
(F51) Pan-STARRS 1, Haleakala  (N20.707234 W156.255910)  US/Hawaii.
   Observers J. Bulger, T. Lowe, A. Schultz, M. Willman. Measurers K.
   Chambers, S. Chastel, T. de Boer, L. Denneau, J. Fairlamb, H. Flewelling,
   M. Huber, C.-C. Lin, E. Magnier, Y. Ramanjooloo, R. Wainscoat, R. Weryk.
   1.8-m Ritchey-Chrétien + CCD.

Orbital elements:  P11DxbX
   Perihelion 2022 Dec 14.81911 +/- 149 TT = 19:39:31 (JD 2459928.31911)
Epoch 2023 Mar 18.0 TT = JDT 2460021.5   Earth MOID: 0.2287      AutoNEOCP
M  45.05839048 +/- 70               (J2000 ecliptic)
n   0.48355829 +/- 0.366            Peri.    8.19009 +/- 90
a   1.60757098 +/- 0.81             Node   114.71592 +/- 52
e   0.2470807 +/- 0.272             Incl.   27.77979 +/- 13
P   2.04/744.47d           H 20.29  G  0.15   U 12.1  SR
q 1.21037113 +/- 0.844    Q 2.00477083 +/- 35.6
From 4 observations 2023 Mar. 17 (52.2 min); mean residual 0".05
Residuals in arcseconds: 
230317 F51  .07-  .03-    230317 F51  .03+  .08+    
230317 F51  .08+  .00     230317 F51  .05-  .05-    

Ephemerides (geocentric):
Date (UTC) HH   RA             Dec           delta  r     elong  mag " sig PA
---- --------  ------------   ------------  ------ ------ -----  --- --------
2023 03 22 15  16 30 52.812   +40 30 13.39  .73868 1.4059 107.3 22.1  21d  29
2023 03 22 16  16 30 53.669   +40 30 52.78  .73873 1.4061 107.3 22.1  21d  29
2023 03 22 17  16 30 54.518   +40 31 32.14  .73877 1.4062 107.3 22.1  21d  29
2023 03 22 18  16 30 55.360   +40 32 11.47  .73882 1.4063 107.4 22.1  21d  29
2023 03 22 19  16 30 56.195   +40 32 50.77  .73886 1.4065 107.4 22.1  21d  29
2023 03 22 20  16 30 57.022   +40 33 30.04  .73891 1.4066 107.4 22.1  21d  30
2023 03 22 21  16 30 57.842   +40 34 09.28  .73895 1.4067 107.4 22.1  21d  30
2023 03 22 22  16 30 58.655   +40 34 48.49  .73900 1.4069 107.4 22.1  21d  30
2023 03 22 23  16 30 59.460   +40 35 27.66  .73905 1.4070 107.4 22.1  21d  30
2023 03 23 00  16 31 00.258   +40 36 06.81  .73909 1.4072 107.4 22.1  21d  30
2023 03 23 01  16 31 01.049   +40 36 45.92  .73914 1.4073 107.4 22.1  21d  30
2023 03 23 02  16 31 01.832   +40 37 25.00  .73918 1.4074 107.4 22.1  21d  30
2023 03 23 03  16 31 02.608   +40 38 04.06  .73923 1.4076 107.4 22.1  21d  30
2023 03 23 04  16 31 03.376   +40 38 43.08  .73927 1.4077 107.5 22.1  21d  29
2023 03 23 05  16 31 04.137   +40 39 22.07  .73932 1.4078 107.5 22.1  22d  29
2023 03 23 06  16 31 04.891   +40 40 01.03  .73936 1.4080 107.5 22.1  22d  29
2023 03 23 07  16 31 05.637   +40 40 39.95  .73941 1.4081 107.5 22.1  22d  28
2023 03 23 08  16 31 06.376   +40 41 18.85  .73945 1.4083 107.5 22.1  22d  28
2023 03 23 09  16 31 07.107   +40 41 57.71  .73950 1.4084 107.5 22.1  22d  27
2023 03 23 10  16 31 07.832   +40 42 36.55  .73954 1.4085 107.5 22.1  23d  26
2023 03 23 11  16 31 08.548   +40 43 15.35  .73959 1.4087 107.5 22.1  23d  26
2023 03 23 12  16 31 09.258   +40 43 54.12  .73963 1.4088 107.5 22.1  23d  26
2023 03 23 13  16 31 09.960   +40 44 32.86  .73968 1.4089 107.6 22.1  24d  26
2023 03 23 14  16 31 10.654   +40 45 11.56  .73972 1.4091 107.6 22.1  24d  26
2023 03 23 15  16 31 11.342   +40 45 50.24  .73977 1.4092 107.6 22.1  24d  27
2023 03 23 16  16 31 12.022   +40 46 28.88  .73981 1.4094 107.6 22.1  25d  27
2023 03 23 17  16 31 12.694   +40 47 07.49  .73986 1.4095 107.6 22.1  25d  28
2023 03 23 18  16 31 13.359   +40 47 46.07  .73990 1.4096 107.6 22.1  25d  28
2023 03 23 19  16 31 14.017   +40 48 24.62  .73995 1.4098 107.6 22.1  25d  28
2023 03 23 20  16 31 14.667   +40 49 03.13  .73999 1.4099 107.6 22.1  25d  28
2023 03 23 21  16 31 15.310   +40 49 41.62  .74004 1.4101 107.6 22.1  25d  29
2023 03 23 22  16 31 15.946   +40 50 20.07  .74008 1.4102 107.7 22.1  25d  29
2023 03 23 23  16 31 16.574   +40 50 58.49  .74013 1.4103 107.7 22.1  25d  29
2023 03 24 00  16 31 17.195   +40 51 36.87  .74017 1.4105 107.7 22.1  26d  29
2023 03 24 01  16 31 17.808   +40 52 15.23  .74022 1.4106 107.7 22.1  26d  29
2023 03 24 02  16 31 18.414   +40 52 53.55  .74026 1.4107 107.7 22.1  26d  29
2023 03 24 03  16 31 19.013   +40 53 31.84  .74031 1.4109 107.7 22.1  26d  29
2023 03 24 04  16 31 19.604   +40 54 10.10  .74036 1.4110 107.7 22.1  26d  29
2023 03 24 05  16 31 20.188   +40 54 48.32  .74040 1.4112 107.7 22.1  26d  29
2023 03 24 06  16 31 20.764   +40 55 26.51  .74045 1.4113 107.7 22.1  26d  30
2023 03 24 07  16 31 21.334   +40 56 04.67  .74049 1.4114 107.8 22.1  26d  30
2023 03 24 08  16 31 21.895   +40 56 42.80  .74054 1.4116 107.8 22.1  26d  30
2023 03 24 09  16 31 22.450   +40 57 20.89  .74058 1.4117 107.8 22.1  26d  30
2023 03 24 10  16 31 22.997   +40 57 58.95  .74063 1.4118 107.8 22.1  26d  30
2023 03 24 11  16 31 23.536   +40 58 36.98  .74067 1.4120 107.8 22.1  26d  30
2023 03 24 12  16 31 24.068   +40 59 14.98  .74072 1.4121 107.8 22.1  26d  30
2023 03 24 13  16 31 24.593   +40 59 52.94  .74076 1.4123 107.8 22.1  26d  30
2023 03 24 14  16 31 25.110   +41 00 30.87  .74081 1.4124 107.8 22.1  26d  30